AAL137 EGLL-KLAX

Flight info

Callsign AAL137
Flight time N/A
Altitude 38000
Route CPT L9 BUCGO DCT FELCA DCT NICXI DCT BAKUR DCT BUNED DCT PIKIL/M083F320 DCT 5730N02000W 5930N03000W 60N040W 60N050W/M083F340 DCT PIDSO N950B MUSLO/N0483F340 N950B RODBO DCT TUNNI DCT LENUT DCT GOSEP DCT YTL/N0472F360 DCT LACTO DCT KAVKI DCT DEBMA DCT OGSIQ DCT DIK DCT KUBLD DCT BPI J713 TCH/N0481F380 DCT PICHO Q842 WINEN/N0470F370 Q73 EEVUN/N0473F380 Q73 HAKMN ANJLL4
Aircraft B77W/H-SDE1E2E3FGHIJ2J3J4J5M1RWXY/LB1D1

Departure

Time N/A
Airport London Heathrow Airport (EGLL)

Arrival

Time 2026-04-23 02:48
Airport Los Angeles International Airport (KLAX)
Time Latitude Longitude Altitude Speed Heading
2026-04-23 01:50 37.39401 -113.62965 36036 ft 430 kts 202°
2026-04-23 01:50 37.33523 -113.64366 36028 ft 429 kts 202°
2026-04-23 01:51 37.27638 -113.65770 36046 ft 433 kts 201°
2026-04-23 01:51 37.21764 -113.67162 36036 ft 431 kts 202°
2026-04-23 01:52 37.15830 -113.68572 36033 ft 432 kts 202°
2026-04-23 01:52 37.09915 -113.69972 36029 ft 431 kts 202°
2026-04-23 01:53 37.04129 -113.71557 36016 ft 421 kts 209°
2026-04-23 01:53 36.98682 -113.74143 36007 ft 416 kts 212°
2026-04-23 01:54 36.93285 -113.76767 36010 ft 417 kts 211°
2026-04-23 01:54 36.87889 -113.79384 36016 ft 418 kts 212°
2026-04-23 01:55 36.82489 -113.81995 36006 ft 416 kts 212°
2026-04-23 01:55 36.77071 -113.84615 36000 ft 418 kts 211°
2026-04-23 01:56 36.71650 -113.87231 35994 ft 422 kts 212°
2026-04-23 01:56 36.66225 -113.89839 35984 ft 419 kts 212°
2026-04-23 01:57 36.60910 -113.92673 35991 ft 417 kts 214°
2026-04-23 01:57 36.55674 -113.95595 35987 ft 413 kts 214°
2026-04-23 01:58 36.50410 -113.98515 35987 ft 414 kts 214°
2026-04-23 01:58 36.45153 -114.01420 35971 ft 417 kts 214°
2026-04-23 01:59 36.39993 -114.04505 35968 ft 407 kts 220°
2026-04-23 01:59 36.35206 -114.08176 35968 ft 405 kts 221°
2026-04-23 02:00 36.30395 -114.11878 35972 ft 407 kts 221°
2026-04-23 02:00 36.25592 -114.15562 35970 ft 408 kts 221°
2026-04-23 02:01 36.20795 -114.19235 35967 ft 407 kts 221°
2026-04-23 02:01 36.15980 -114.22916 35971 ft 407 kts 221°
2026-04-23 02:02 36.11130 -114.26621 35966 ft 409 kts 221°
2026-04-23 02:02 36.06877 -114.30936 35950 ft 391 kts 234°
2026-04-23 02:03 36.03243 -114.35950 35943 ft 391 kts 235°
2026-04-23 02:03 35.99628 -114.40958 35937 ft 391 kts 236°
2026-04-23 02:04 35.95999 -114.45979 35941 ft 393 kts 236°
2026-04-23 02:04 35.92376 -114.50983 35938 ft 392 kts 236°
2026-04-23 02:05 35.88742 -114.55995 35938 ft 393 kts 235°
2026-04-23 02:05 35.85092 -114.61024 35930 ft 391 kts 235°
2026-04-23 02:06 35.81461 -114.66019 35928 ft 394 kts 235°
2026-04-23 02:06 35.77813 -114.71026 35947 ft 394 kts 234°
2026-04-23 02:07 35.74155 -114.76038 35940 ft 391 kts 235°
2026-04-23 02:07 35.70507 -114.81034 35936 ft 393 kts 235°
2026-04-23 02:08 35.66883 -114.85987 35961 ft 393 kts 235°
2026-04-23 02:08 35.63225 -114.90993 35960 ft 393 kts 235°
2026-04-23 02:09 35.59595 -114.95958 35967 ft 395 kts 235°
2026-04-23 02:09 35.55948 -115.00935 35979 ft 394 kts 235°
2026-04-23 02:10 35.52309 -115.05898 35990 ft 392 kts 235°
2026-04-23 02:10 35.48645 -115.10809 35994 ft 393 kts 234°
2026-04-23 02:11 35.44876 -115.15723 35994 ft 394 kts 234°
2026-04-23 02:11 35.41146 -115.20582 36001 ft 393 kts 234°
2026-04-23 02:12 35.37404 -115.25457 36002 ft 391 kts 234°
2026-04-23 02:12 35.33664 -115.30325 35997 ft 393 kts 234°
2026-04-23 02:13 35.29912 -115.35201 36017 ft 394 kts 234°
2026-04-23 02:13 35.26167 -115.40062 36015 ft 393 kts 234°
2026-04-23 02:14 35.22407 -115.44938 36003 ft 396 kts 234°
2026-04-23 02:14 35.18661 -115.49784 36003 ft 393 kts 234°
2026-04-23 02:15 35.13028 -115.57063 35992 ft 394 kts 234°
2026-04-23 02:16 35.09282 -115.61871 35995 ft 394 kts 234°
2026-04-23 02:16 35.05484 -115.66727 36011 ft 396 kts 233°
2026-04-23 02:17 35.01693 -115.71566 35994 ft 395 kts 233°
2026-04-23 02:17 34.97914 -115.76385 35977 ft 393 kts 233°
2026-04-23 02:18 34.94107 -115.81235 35984 ft 395 kts 233°
2026-04-23 02:18 34.90329 -115.86037 36148 ft 395 kts 234°
2026-04-23 02:18 34.88433 -115.88446 35997 ft 394 kts 233°
2026-04-23 02:19 34.86546 -115.90842 35992 ft 393 kts 234°
2026-04-23 02:19 34.82758 -115.95645 35988 ft 394 kts 234°
2026-04-23 02:20 34.78964 -116.00449 35996 ft 393 kts 234°
2026-04-23 02:20 34.75194 -116.05235 35986 ft 389 kts 233°
2026-04-23 02:20 34.73352 -116.07581 35548 ft 385 kts 233°
2026-04-23 02:21 34.71516 -116.09922 34794 ft 385 kts 233°
2026-04-23 02:21 34.69679 -116.12261 34166 ft 383 kts 234°
2026-04-23 02:21 34.67839 -116.14606 33570 ft 391 kts 233°
2026-04-23 02:21 34.65911 -116.17070 32910 ft 412 kts 233°
2026-04-23 02:22 34.63929 -116.19589 32170 ft 416 kts 232°
2026-04-23 02:22 34.61937 -116.22115 31440 ft 417 kts 232°
2026-04-23 02:22 34.59934 -116.24654 30747 ft 417 kts 232°
2026-04-23 02:22 34.57946 -116.27169 30328 ft 412 kts 232°
2026-04-23 02:23 34.55963 -116.29681 29912 ft 417 kts 232°
2026-04-23 02:23 34.53962 -116.32214 29443 ft 416 kts 232°
2026-04-23 02:23 34.51958 -116.34747 28963 ft 414 kts 232°
2026-04-23 02:23 34.49976 -116.37249 28481 ft 409 kts 232°
2026-04-23 02:24 34.48019 -116.39719 28005 ft 407 kts 232°
2026-04-23 02:24 34.46079 -116.42165 27531 ft 403 kts 232°
2026-04-23 02:24 34.44133 -116.44618 27049 ft 401 kts 232°
2026-04-23 02:24 34.42309 -116.47121 26571 ft 394 kts 238°
2026-04-23 02:25 34.40844 -116.49833 26104 ft 388 kts 246°
2026-04-23 02:25 34.39619 -116.52729 25641 ft 385 kts 248°
2026-04-23 02:25 34.38434 -116.55608 25170 ft 382 kts 247°
2026-04-23 02:25 34.37247 -116.58488 24702 ft 379 kts 248°
2026-04-23 02:26 34.36077 -116.61328 24247 ft 377 kts 248°
2026-04-23 02:26 34.34939 -116.64082 24053 ft 364 kts 248°
2026-04-23 02:26 34.33833 -116.66755 24060 ft 347 kts 248°
2026-04-23 02:26 34.32772 -116.69344 23998 ft 344 kts 248°
2026-04-23 02:27 34.31727 -116.71960 23468 ft 347 kts 249°
2026-04-23 02:27 34.30673 -116.74596 22963 ft 345 kts 249°
2026-04-23 02:27 34.29638 -116.77174 22532 ft 341 kts 249°
2026-04-23 02:27 34.28616 -116.79717 22123 ft 337 kts 248°
2026-04-23 02:28 34.27596 -116.82248 21711 ft 335 kts 249°
2026-04-23 02:28 34.26581 -116.84767 21307 ft 336 kts 248°
2026-04-23 02:28 34.25551 -116.87321 20890 ft 335 kts 248°
2026-04-23 02:28 34.24525 -116.89859 20486 ft 333 kts 248°
2026-04-23 02:29 34.23524 -116.92335 20083 ft 332 kts 248°
2026-04-23 02:29 34.22518 -116.94831 19680 ft 333 kts 248°
2026-04-23 02:29 34.21494 -116.97366 19260 ft 332 kts 248°
2026-04-23 02:29 34.20673 -116.99925 18864 ft 325 kts 255°
2026-04-23 02:30 34.19969 -117.02520 18573 ft 326 kts 255°
2026-04-23 02:30 34.19273 -117.05109 18261 ft 327 kts 255°
2026-04-23 02:30 34.18570 -117.07715 17903 ft 326 kts 255°
2026-04-23 02:30 34.17870 -117.10301 17579 ft 322 kts 255°
2026-04-23 02:31 34.17178 -117.12846 17277 ft 322 kts 255°
2026-04-23 02:31 34.16484 -117.15409 16964 ft 321 kts 255°
2026-04-23 02:31 34.15792 -117.17937 16632 ft 322 kts 255°
2026-04-23 02:31 34.15084 -117.20507 16268 ft 320 kts 255°
2026-04-23 02:32 34.14384 -117.23051 15924 ft 319 kts 255°
2026-04-23 02:32 34.13695 -117.25554 15585 ft 317 kts 255°
2026-04-23 02:32 34.12998 -117.28084 15232 ft 316 kts 255°
2026-04-23 02:32 34.12407 -117.30229 14933 ft 316 kts 255°
2026-04-23 02:33 34.11716 -117.32733 14584 ft 315 kts 255°
2026-04-23 02:33 34.11036 -117.35204 14247 ft 314 kts 255°
2026-04-23 02:33 34.10350 -117.37686 13905 ft 312 kts 256°
2026-04-23 02:33 34.09714 -117.40196 13515 ft 309 kts 257°
2026-04-23 02:34 34.09115 -117.42653 13124 ft 306 kts 257°
2026-04-23 02:34 34.08505 -117.45106 12731 ft 303 kts 257°
2026-04-23 02:34 34.07904 -117.47509 12354 ft 301 kts 257°
2026-04-23 02:34 34.07281 -117.49884 11977 ft 299 kts 253°
2026-04-23 02:35 34.06486 -117.52197 11690 ft 295 kts 251°
2026-04-23 02:35 34.05676 -117.54441 11470 ft 287 kts 251°
2026-04-23 02:35 34.04890 -117.56613 11245 ft 281 kts 251°
2026-04-23 02:35 34.04107 -117.58783 11011 ft 274 kts 251°
2026-04-23 02:36 34.03361 -117.60852 10786 ft 268 kts 251°
2026-04-23 02:36 34.02626 -117.62894 10569 ft 262 kts 251°
2026-04-23 02:36 34.01902 -117.64909 10347 ft 257 kts 251°
2026-04-23 02:36 34.01187 -117.66894 10141 ft 258 kts 251°
2026-04-23 02:37 34.00659 -117.68928 9916 ft 254 kts 263°
2026-04-23 02:37 34.00417 -117.71036 9608 ft 255 kts 266°
2026-04-23 02:37 34.00216 -117.73155 9280 ft 255 kts 266°
2026-04-23 02:37 34.00014 -117.75262 8970 ft 253 kts 266°
2026-04-23 02:38 33.99799 -117.77377 8656 ft 254 kts 265°
2026-04-23 02:38 33.99591 -117.79475 8344 ft 254 kts 265°
2026-04-23 02:38 33.99360 -117.81585 8030 ft 254 kts 265°
2026-04-23 02:38 33.99135 -117.83696 7733 ft 252 kts 264°
2026-04-23 02:39 33.98922 -117.85761 7486 ft 248 kts 265°
2026-04-23 02:39 33.98727 -117.87801 7222 ft 244 kts 266°
2026-04-23 02:39 33.98538 -117.89826 6959 ft 240 kts 265°
2026-04-23 02:39 33.98349 -117.91773 6731 ft 236 kts 265°
2026-04-23 02:40 33.98162 -117.93735 6512 ft 231 kts 266°
2026-04-23 02:40 33.97979 -117.95636 6308 ft 226 kts 266°
2026-04-23 02:40 33.97811 -117.97466 6101 ft 215 kts 266°
2026-04-23 02:40 33.97655 -117.99137 5907 ft 206 kts 265°
2026-04-23 02:41 33.97497 -118.00834 5716 ft 199 kts 265°
2026-04-23 02:41 33.97345 -118.02465 5537 ft 199 kts 265°
2026-04-23 02:41 33.97180 -118.04151 5347 ft 200 kts 265°
2026-04-23 02:41 33.97017 -118.05806 5158 ft 200 kts 265°
2026-04-23 02:42 33.96854 -118.07458 4972 ft 199 kts 265°
2026-04-23 02:42 33.96687 -118.09134 4743 ft 198 kts 265°
2026-04-23 02:42 33.96525 -118.10761 4507 ft 201 kts 265°
2026-04-23 02:42 33.96360 -118.12415 4258 ft 197 kts 265°
2026-04-23 02:43 33.96203 -118.13994 4017 ft 185 kts 265°
2026-04-23 02:43 33.96054 -118.15498 3793 ft 174 kts 265°
2026-04-23 02:43 33.95915 -118.16875 3588 ft 158 kts 265°
2026-04-23 02:43 33.95789 -118.18145 3399 ft 149 kts 265°
2026-04-23 02:44 33.95665 -118.19395 3213 ft 150 kts 265°
2026-04-23 02:44 33.95538 -118.20627 3015 ft 148 kts 265°
2026-04-23 02:44 33.95412 -118.21872 2819 ft 148 kts 264°
2026-04-23 02:44 33.95288 -118.23092 2618 ft 148 kts 264°
2026-04-23 02:45 33.95153 -118.24320 2370 ft 145 kts 264°
2026-04-23 02:45 33.95030 -118.25526 2134 ft 145 kts 264°
2026-04-23 02:45 33.94913 -118.26726 1914 ft 145 kts 263°
2026-04-23 02:45 33.94791 -118.27926 1735 ft 142 kts 264°
2026-04-23 02:46 33.94672 -118.29112 1535 ft 142 kts 263°
2026-04-23 02:46 33.94554 -118.30300 1337 ft 146 kts 263°
2026-04-23 02:46 33.94427 -118.31499 1182 ft 145 kts 263°
2026-04-23 02:46 33.94309 -118.32690 1021 ft 142 kts 263°
2026-04-23 02:47 33.94188 -118.33878 858 ft 142 kts 263°
2026-04-23 02:47 33.94068 -118.35055 668 ft 142 kts 263°
2026-04-23 02:47 33.93947 -118.36212 474 ft 138 kts 263°
2026-04-23 02:47 33.93832 -118.37347 286 ft 138 kts 262°
2026-04-23 02:48 33.93711 -118.38493 136 ft 134 kts 263°
2026-04-23 02:48 33.93611 -118.39481 119 ft 94 kts 264°
2026-04-23 02:48 33.93552 -118.40046 128 ft 41 kts 263°
2026-04-23 02:48 33.93530 -118.40350 133 ft 32 kts 278°
2026-04-23 02:49 33.93573 -118.40585 137 ft 24 kts 289°
2026-04-23 02:49 33.93594 -118.40744 139 ft 17 kts 264°
2026-04-23 02:49 33.93583 -118.40874 140 ft 14 kts 263°
2026-04-23 02:49 33.93571 -118.40991 141 ft 13 kts 263°
2026-04-23 02:50 33.93559 -118.41099 140 ft 12 kts 262°
2026-04-23 02:50 33.93562 -118.41205 139 ft 12 kts 285°
2026-04-23 02:50 33.93619 -118.41269 139 ft 11 kts 354°
2026-04-23 02:50 33.93694 -118.41279 139 ft 10 kts 354°
2026-04-23 02:51 33.93758 -118.41265 139 ft 9 kts 19°
2026-04-23 02:51 33.93818 -118.41250 139 ft 6 kts 33°
2026-04-23 02:51 33.93838 -118.41197 139 ft 7 kts 83°
2026-04-23 02:51 33.93845 -118.41139 140 ft 6 kts 83°
2026-04-23 02:52 33.93851 -118.41081 140 ft 6 kts 83°
2026-04-23 02:52 33.93856 -118.41027 140 ft 6 kts 84°
2026-04-23 02:52 33.93862 -118.40968 141 ft 7 kts 84°
2026-04-23 02:52 33.93867 -118.40906 141 ft 7 kts 84°
2026-04-23 02:53 33.93873 -118.40844 141 ft 7 kts 82°
2026-04-23 02:53 33.93905 -118.40807 140 ft 8 kts 358°
2026-04-23 02:53 33.93966 -118.40816 139 ft 7 kts 353°
2026-04-23 02:53 33.94019 -118.40824 138 ft 7 kts 352°
2026-04-23 02:54 33.94065 -118.40829 138 ft 2 kts 354°
2026-04-23 02:54 33.94085 -118.40833 138 ft 2 kts 348°
2026-04-23 02:54 33.94093 -118.40839 138 ft 1 kts 310°
2026-04-23 02:54 33.94098 -118.40855 138 ft 2 kts 272°
2026-04-23 02:55 33.94095 -118.40877 138 ft 2 kts 262°
2026-04-23 02:55 33.94092 -118.40900 138 ft 2 kts 262°
2026-04-23 02:55 33.94091 -118.40913 138 ft 0 kts 263°
2026-04-23 02:55 33.94091 -118.40914 138 ft 0 kts 263°
2026-04-23 02:56 33.94090 -118.40919 138 ft 1 kts 263°
2026-04-23 02:56 33.94089 -118.40929 138 ft 0 kts 263°